STARLINK-35429

Last updated on Wed Dec 31 2025 00:02:06 GMT+0000 (Coordinated Universal Time)

1 66590U 25270C 25364.59665958 .00064554 00000+0 15371-2 0 9997 2 66590 43.0017 89.4424 0002848 270.7572 89.2958 15.40747085 7218
UTC large
Height (km)
Speed (km/s)
/
Latitude / Longitude
Inclination (degrees)
Orbital Period (minutes)
Azimuth
Elevation
Range (km)
Doppler Factor

Next 0 passes for location: London (51.5072 / 0.1276)

Sorry there are no passes over London.